Time,TemperatureF,DewpointF,PressureIn,WindDirection,WindDirectionDegrees,WindSpeedMPH,WindSpeedGustMPH,Humidity,HourlyPrecipIn,Conditions,Clouds,dailyrainin,SoftwareType,DateUTC
2013-06-05 00:00:00,66.3,63.3,30.04,West,270,0.0,3.0,90,0.00,,OVC,0.00,VWS V14.01,2013-06-05 04:00:00,
2013-06-05 01:00:00,66.3,63.3,30.03,West,270,0.0,5.0,90,0.00,,OVC,0.00,VWS V14.01,2013-06-05 05:00:00,
2013-06-05 02:00:00,66.1,63.4,30.03,West,270,0.0,4.0,91,0.00,,OVC,0.00,VWS V14.01,2013-06-05 06:00:00,
2013-06-05 03:00:00,65.8,63.4,30.03,West,270,0.0,3.0,92,0.00,,OVC,0.00,VWS V14.01,2013-06-05 07:00:00,
2013-06-05 04:00:00,65.0,62.9,30.01,WSW,248,0.0,3.0,93,0.00,,OVC,0.00,VWS V14.01,2013-06-05 08:00:00,
2013-06-05 05:00:00,64.7,62.9,30.02,SSW,202,0.0,6.0,94,0.00,,OVC,0.00,VWS V14.01,2013-06-05 09:00:00,
2013-06-05 06:00:00,64.2,62.7,30.03,SW,225,0.0,3.0,95,0.00,,OVC,0.00,VWS V14.01,2013-06-05 10:00:00,
2013-06-05 07:00:00,63.9,62.4,30.04,SW,225,0.0,4.0,95,0.00,,OVC,0.00,VWS V14.01,2013-06-05 11:00:00,
2013-06-05 08:00:00,64.3,62.5,30.06,SW,225,0.0,3.0,94,0.00,,OVC,0.00,VWS V14.01,2013-06-05 12:00:00,
2013-06-05 09:00:00,64.9,63.1,30.05,WSW,248,0.0,2.0,94,0.00,,OVC,0.00,VWS V14.01,2013-06-05 13:00:00,
2013-06-05 10:00:00,66.1,64.0,30.05,West,270,0.0,4.0,93,0.00,,OVC,0.00,VWS V14.01,2013-06-05 14:00:00,
2013-06-05 11:00:00,67.2,64.8,30.04,WSW,248,0.0,5.0,92,0.00,,OVC,0.00,VWS V14.01,2013-06-05 15:00:00,
2013-06-05 12:00:00,69.0,65.6,30.03,WSW,248,0.0,4.0,89,0.00,,OVC,0.00,VWS V14.01,2013-06-05 16:00:00,
2013-06-05 13:00:00,70.5,66.4,30.03,WSW,248,1.0,5.0,87,0.00,,OVC,0.00,VWS V14.01,2013-06-05 17:00:00,
2013-06-05 14:00:00,71.5,66.8,30.01,WSW,248,0.0,4.0,85,0.00,,OVC,0.00,VWS V14.01,2013-06-05 18:00:00,
2013-06-05 15:00:00,74.7,67.4,29.98,WSW,248,1.0,6.0,78,0.00,,OVC,0.00,VWS V14.01,2013-06-05 19:00:00,
2013-06-05 16:00:00,76.6,68.5,29.96,SW,225,0.0,7.0,76,0.00,,OVC,0.00,VWS V14.01,2013-06-05 20:00:00,
2013-06-05 17:00:00,77.0,68.5,29.95,WSW,248,1.0,5.0,75,0.00,,OVC,0.00,VWS V14.01,2013-06-05 21:00:00,
2013-06-05 18:00:00,76.3,68.9,29.93,WSW,248,0.0,6.0,78,0.00,,OVC,0.00,VWS V14.01,2013-06-05 22:00:00,
2013-06-05 19:00:00,72.0,67.2,29.92,West,270,0.0,3.0,85,0.00,,OVC,0.00,VWS V14.01,2013-06-05 23:00:00,
2013-06-05 20:00:00,72.0,67.2,29.92,West,270,0.0,3.0,85,0.00,,,0.00,VWS V14.01,2013-06-06 00:00:00,
2013-06-05 20:53:00,64.3,63.1,29.96,SW,236,0.0,0.0,96,0.29,,OVC,0.31,VWS V14.01,2013-06-06 00:53:00,
2013-06-05 20:58:00,64.2,63.0,29.96,SW,236,0.0,1.0,96,0.29,,OVC,0.31,VWS V14.01,2013-06-06 00:58:00,
2013-06-05 21:00:00,64.2,63.0,29.97,SW,236,0.0,1.0,96,0.29,,OVC,0.31,VWS V14.01,2013-06-06 01:00:00,
2013-06-05 21:04:00,64.1,62.9,29.97,SW,236,0.0,1.0,96,0.01,,OVC,0.32,VWS V14.01,2013-06-06 01:04:00,
2013-06-05 21:09:00,64.0,62.8,29.97,SW,236,0.0,2.0,96,0.01,,OVC,0.32,VWS V14.01,2013-06-06 01:09:00,
2013-06-05 21:14:00,64.0,63.1,29.97,SW,236,0.0,2.0,97,0.01,,OVC,0.32,VWS V14.01,2013-06-06 01:14:00,
2013-06-05 21:19:00,64.1,63.2,29.97,SW,236,0.0,2.0,97,0.01,,OVC,0.32,VWS V14.01,2013-06-06 01:19:00,
2013-06-05 21:24:00,64.0,63.1,29.97,SW,236,0.0,2.0,97,0.01,,OVC,0.32,VWS V14.01,2013-06-06 01:24:00,
2013-06-05 21:29:00,64.0,63.1,29.97,SW,236,0.0,2.0,97,0.01,,OVC,0.32,VWS V14.01,2013-06-06 01:29:00,
2013-06-05 21:34:00,64.0,63.1,29.97,SW,236,0.0,2.0,97,0.01,,OVC,0.32,VWS V14.01,2013-06-06 01:34:00,
2013-06-05 21:39:00,64.1,63.2,29.97,SW,236,0.0,2.0,97,0.01,,OVC,0.32,VWS V14.01,2013-06-06 01:39:00,
2013-06-05 21:44:00,64.1,63.2,29.97,SW,236,0.0,2.0,97,0.01,,OVC,0.32,VWS V14.01,2013-06-06 01:44:00,
2013-06-05 21:49:00,64.1,63.2,29.97,SW,236,0.0,2.0,97,0.01,,OVC,0.32,VWS V14.01,2013-06-06 01:49:00,
2013-06-05 21:54:00,64.1,63.2,29.97,SW,236,0.0,2.0,97,0.01,,OVC,0.32,VWS V14.01,2013-06-06 01:54:00,
2013-06-05 21:59:00,64.1,63.2,29.97,SW,236,0.0,2.0,97,0.01,,OVC,0.32,VWS V14.01,2013-06-06 01:59:00,
2013-06-05 22:00:00,64.1,63.2,29.97,SW,236,0.0,2.0,97,0.01,,OVC,0.32,VWS V14.01,2013-06-06 02:00:00,
2013-06-05 22:05:00,64.1,63.2,29.97,SW,236,0.0,0.0,97,0.01,,OVC,0.32,VWS V14.01,2013-06-06 02:05:00,
2013-06-05 22:10:00,64.2,63.3,29.97,SW,236,0.0,0.0,97,0.01,,OVC,0.32,VWS V14.01,2013-06-06 02:10:00,
2013-06-05 22:15:00,64.1,63.2,29.97,SW,236,0.0,0.0,97,0.01,,OVC,0.32,VWS V14.01,2013-06-06 02:15:00,
2013-06-05 22:20:00,64.2,63.3,29.97,SW,236,0.0,0.0,97,0.01,,OVC,0.32,VWS V14.01,2013-06-06 02:20:00,
2013-06-05 22:25:00,64.4,63.5,29.98,SW,236,0.0,1.0,97,0.01,,OVC,0.32,VWS V14.01,2013-06-06 02:25:00,
2013-06-05 22:30:00,64.5,63.6,29.97,SW,236,0.0,1.0,97,0.01,,OVC,0.32,VWS V14.01,2013-06-06 02:30:00,
2013-06-05 22:35:00,64.5,63.6,29.97,SW,236,0.0,1.0,97,0.01,,OVC,0.32,VWS V14.01,2013-06-06 02:35:00,
2013-06-05 22:40:00,64.5,63.6,29.97,SW,236,0.0,1.0,97,0.01,,OVC,0.32,VWS V14.01,2013-06-06 02:40:00,
2013-06-05 22:45:00,64.7,64.1,29.97,SW,236,0.0,1.0,98,0.01,,OVC,0.32,VWS V14.01,2013-06-06 02:45:00,
2013-06-05 22:50:00,64.8,64.2,29.97,SW,236,0.0,1.0,98,0.01,,OVC,0.32,VWS V14.01,2013-06-06 02:50:00,
2013-06-05 22:55:00,64.9,64.3,29.97,SW,236,0.0,1.0,98,0.01,,OVC,0.32,VWS V14.01,2013-06-06 02:55:00,
2013-06-05 23:00:00,64.9,64.3,29.97,SW,236,0.0,0.0,98,0.00,,OVC,0.32,VWS V14.01,2013-06-06 03:00:00,
2013-06-05 23:05:00,64.9,64.3,29.97,SW,236,0.0,0.0,98,0.00,,OVC,0.32,VWS V14.01,2013-06-06 03:05:00,
2013-06-05 23:10:00,64.9,64.3,29.97,SW,236,0.0,0.0,98,0.00,,OVC,0.32,VWS V14.01,2013-06-06 03:10:00,
2013-06-05 23:15:00,64.9,64.3,29.97,SW,236,0.0,0.0,98,0.00,,OVC,0.32,VWS V14.01,2013-06-06 03:15:00,
2013-06-05 23:21:00,64.9,64.3,29.97,SW,236,0.0,0.0,98,0.00,,OVC,0.32,VWS V14.01,2013-06-06 03:21:00,
2013-06-05 23:26:00,64.9,64.3,29.96,SW,236,0.0,0.0,98,0.00,,OVC,0.32,VWS V14.01,2013-06-06 03:26:00,
2013-06-05 23:31:00,64.9,64.3,29.96,SW,236,0.0,0.0,98,0.00,,OVC,0.32,VWS V14.01,2013-06-06 03:31:00,
2013-06-05 23:36:00,64.9,64.3,29.96,SW,236,0.0,0.0,98,0.00,,OVC,0.32,VWS V14.01,2013-06-06 03:36:00,
2013-06-05 23:41:00,64.9,64.3,29.96,SW,236,0.0,0.0,98,0.00,,OVC,0.32,VWS V14.01,2013-06-06 03:41:00,
2013-06-05 23:46:00,64.9,64.3,29.96,SW,236,0.0,0.0,98,0.00,,OVC,0.32,VWS V14.01,2013-06-06 03:46:00,
2013-06-05 23:51:00,64.9,64.3,29.95,SW,236,0.0,0.0,98,0.00,,OVC,0.32,VWS V14.01,2013-06-06 03:51:00,
2013-06-05 23:56:00,65.0,64.4,29.95,SW,236,0.0,0.0,98,0.00,,OVC,0.32,VWS V14.01,2013-06-06 03:56:00,